#timestamp,LO_Frequency,Hit,StdDev 
1689750015.5,286047000.6,N
1689750035.3,286047000.3,N
1689750055.2,286046999.8,N
1689750075.0,286046999.0,N
1689750075.9,286046999.0,N
1689750095.7,286046997.7,N
1689750115.6,286046998.9,N
1689750135.4,286046998.1,N
1689750155.3,286047000.7,N
1689750175.1,286046998.5,N
1689750176.0,286046998.5,N
1689750195.8,286046998.3,N
1689750215.7,286046996.6,N
1689750235.5,286046999.1,N
1689750255.3,286046997.5,N
1689750275.2,286046999.0,N
1689750295.0,286047001.1,N
1689750295.9,286047001.1,N
1689750315.8,286047000.3,N
1689750335.6,286047001.0,N
1689750355.4,286046998.1,N
1689750375.3,286046999.9,N
1689750395.1,286047000.5,N
1689750415.9,286046999.9,N
1689750435.7,286046996.5,N
1689750455.5,286046995.3,Y
1689750475.4,286046999.5,P
1689750495.2,286046998.4,P
1689750515.0,286046996.9,P
1689750515.9,286046996.9,N
1689750535.8,286046994.9,Y
1689750555.6,286046996.6,P
1689750575.5,286046999.0,N
1689750595.3,286047000.7,N
1689750615.1,286047000.0,N
1689750635.9,286046999.9,N
1689750655.7,286046998.4,N
1689750675.5,286046998.6,N
1689750695.4,286046998.7,N
1689750715.2,286046998.4,N
1689750735.1,286046998.5,N
1689750736.0,286046998.5,N
1689750755.8,286047000.4,N
1689750775.6,286047002.5,N
1689750795.5,286046999.8,N
1689750815.3,286047000.3,N
1689750835.1,286047000.0,N
1689750855.9,286047002.8,N
1689750875.7,286046999.7,N
1689750895.6,286046998.4,N
1689750915.4,286046999.0,N
1689750935.2,286046999.2,N
1689750955.1,286046999.1,N
1689750956.0,286046999.1,N
1689750975.8,286046996.6,N
1689750995.6,286046996.5,N
1689751015.5,286046999.3,N
1689751035.3,286046998.6,N
1689751055.2,286047000.7,N
1689751075.9,286047000.7,N
1689751095.7,286047000.2,N
1689751115.6,286047002.7,N
1689751135.4,286047001.7,N
1689751155.2,286047000.3,N
1689751175.1,286046998.2,N
1689751176.0,286046998.2,N
1689751195.8,286046999.8,N
1689751215.7,286046999.8,N
1689751235.5,286046998.1,N
1689751255.3,286046998.3,N
1689751275.2,286046999.4,N
1689751295.0,286046998.3,N
1689751295.9,286046998.3,N
1689751315.7,286046998.8,N
1689751335.6,286047000.4,N
1689751355.4,286047000.5,N
1689751375.3,286046999.7,N
1689751395.1,286047002.2,N
1689751396.0,286047002.2,N
1689751415.8,286047000.2,N
1689751435.7,286046998.1,N
1689751455.5,286046998.8,N
1689751475.3,286046997.0,N
1689751495.2,286046996.7,N
1689751515.0,286046999.0,N
1689751515.9,286046999.0,N
1689751535.8,286046998.1,N
1689751555.6,286046996.5,N
1689751575.4,286046998.1,N
1689751595.3,286046998.1,N
1689751615.1,286047000.7,N
1689751635.8,286047000.2,N
1689751655.7,286047000.6,N
1689751675.5,286047002.4,N
1689751695.4,286047002.5,N
1689751715.2,286047002.4,N
1689751735.0,286047000.5,N
1689751735.9,286047000.5,N
1689751755.8,286047000.6,N
1689751775.6,286047001.1,N
1689751795.4,286046998.7,N
1689751815.3,286046997.5,N
1689751835.1,286046993.8,Y
1689751855.9,286046992.1,P
1689751875.7,286046993.9,N
1689751895.5,286046993.3,N
1689751915.4,286046993.8,N
1689751935.2,286046995.5,N
1689751955.0,286046997.2,N
1689751956.0,286046997.2,N
1689751975.8,286046993.4,N
1689751995.6,286046994.0,N
1689752015.5,286046993.7,N
1689752035.3,286046993.9,N
1689752055.1,286046993.7,Y
1689752075.9,286046999.3,P
1689752095.7,286046996.9,N
1689752115.6,286046995.2,N
1689752135.4,286046997.8,N
1689752155.2,286046995.4,N
1689752175.1,286046995.3,N
1689752176.0,286046995.3,Y
1689752195.8,286047000.5,P
1689752215.6,286047000.8,N
1689752235.5,286047000.1,N
1689752255.3,286047000.2,N
1689752275.2,286047002.5,N
1689752295.9,286047001.6,N
1689752315.7,286047004.4,N
1689752335.6,286047001.3,N
1689752355.4,286047003.2,N
1689752375.2,286047003.4,N
1689752395.1,286047004.3,N
1689752396.0,286047004.3,N
1689752415.8,286047001.3,N
1689752435.7,286047005.6,N
1689752455.5,286047005.7,N
1689752475.3,286047003.2,N
1689752495.2,286047001.7,N
1689752515.0,286047001.3,N
1689752515.9,286047001.3,N
1689752535.7,286047003.0,N
1689752555.6,286047006.0,N
1689752575.4,286047003.6,N
1689752595.3,286047003.6,N
1689752615.1,286047003.2,N
1689752616.0,286047003.2,N
1689752635.8,286047004.2,N
1689752655.7,286047003.0,N
1689752675.5,286047005.1,N
1689752695.3,286047005.4,N
1689752715.2,286047005.8,N
1689752735.0,286047005.8,Y
1689752735.9,286047005.8,P
1689752755.8,286047002.1,N
1689752775.6,286046999.8,N
1689752795.4,286047004.4,N
1689752815.3,286047001.6,N
1689752835.1,286047003.7,N
1689752855.9,286047001.5,N
1689752875.7,286047003.4,N
1689752895.5,286047004.2,N
1689752915.4,286047000.9,N
1689752935.2,286046998.7,N
1689752955.0,286046999.4,N
1689752955.9,286046999.4,N
1689752975.8,286047000.1,N
1689752995.6,286047001.3,N
1689753015.5,286047003.5,N
1689753035.3,286047003.1,N
1689753055.1,286047005.3,N
1689753075.9,286047005.7,N
1689753095.7,286047006.0,N
1689753115.5,286047004.4,N
1689753135.4,286046999.8,N
1689753155.2,286047002.7,N
1689753175.1,286047002.8,N
1689753176.0,286047002.8,N
1689753195.8,286046999.7,N
1689753215.6,286047000.2,N
1689753235.5,286047000.1,N
1689753255.3,286047002.7,N
1689753275.1,286047002.7,N
1689753295.9,286047001.7,N
1689753315.7,286047002.7,N
1689753335.6,286047001.9,N
1689753355.4,286047002.5,N
1689753375.2,286047001.4,N
1689753395.1,286047003.5,N
1689753396.0,286047003.5,N
1689753415.8,286047003.0,N
1689753435.6,286047005.4,N
1689753455.5,286047005.2,N
1689753475.3,286047004.8,N
1689753495.2,286047007.5,Y
1689753515.9,286047004.0,P
1689753535.7,286047001.9,N
1689753555.6,286047002.0,N
1689753575.4,286047000.1,N
1689753595.3,286047000.4,N
